contact:dominique.lefevre@mio.osupytheas.fr, maurice.libes@osupytheas.fr
Project:EMSO Ligure-ouest http://www.emso-fr.org/EMSO-France
Sensor Aquadopp, line 13 Serial AQD14315 
DOI : "https://doi.org/10.17882/74513; https://doi.org/10.17882/83244" 
Title:EMSO Ligure Ouest : Data ligne ALBATROSS capteur AQUADOPP - deploiement 2021
Id,Date,Profondeur,Latitude,Longitude,X_East,Y_North,Z_Up,Amplitude_X,Amplitude_Y,Amplitude_Z,Batterie,SoundSpeed,Heading,Pitch,Roll,Pressure,Temperature,Speed,Direction
, , m, degrees North, degrees East, m.s-1, m.s-1,m.s-1, 1, 1, 1, Volt, m.s-1, degree, degree, degree, dbar, degree_C, m.s-1, degree
09,2022-08-23T23:30:00,2000.0,42.79,6.0312,-0.03,-0.004,-0.019,67.0,65.0,64.0,12.9,1504.7,338.9,-0.6,0.7,1992.521,13.28,0.03,262.4
09,2022-08-24T00:00:00,2000.0,42.79,6.0312,-0.025,0.02,-0.011,68.0,63.0,65.0,12.9,1504.7,343.3,-0.7,0.7,1992.547,13.28,0.032,308.7
09,2022-08-24T00:30:00,2000.0,42.79,6.0312,-0.002,0.017,-0.011,65.0,62.0,65.0,12.9,1504.7,342.6,-0.7,0.7,1992.528,13.28,0.017,353.3
09,2022-08-24T01:00:00,2000.0,42.79,6.0312,-0.028,0.001,0.018,72.0,62.0,65.0,12.9,1504.7,342.8,-0.7,0.7,1992.521,13.28,0.028,272.0
09,2022-08-24T02:00:00,2000.0,42.79,6.0312,-0.019,0.005,0.0,67.0,61.0,67.0,12.9,1504.7,345.7,-0.7,0.8,1992.56,13.28,0.019,284.7
09,2022-08-24T02:30:00,2000.0,42.79,6.0312,-0.013,0.016,-0.017,70.0,64.0,68.0,12.9,1504.7,346.4,-0.7,0.8,1992.534,13.28,0.02,320.9
09,2022-08-24T03:00:00,2000.0,42.79,6.0312,-0.001,0.0,-0.018,67.0,63.0,71.0,12.9,1504.7,348.0,-0.7,0.8,1992.546,13.28,0.001,270.0
09,2022-08-24T03:30:00,2000.0,42.79,6.0312,0.005,0.003,0.004,64.0,63.0,62.0,12.9,1504.7,350.0,-0.7,0.8,1992.546,13.28,0.005,59.0
09,2022-08-24T04:00:00,2000.0,42.79,6.0312,-0.004,-0.007,-0.001,64.0,61.0,65.0,12.9,1504.7,353.2,-0.7,0.8,1992.553,13.28,0.008,209.7
09,2022-08-24T04:30:00,2000.0,42.79,6.0312,0.008,-0.009,-0.024,66.0,61.0,64.0,12.9,1504.7,354.3,-0.7,0.8,1992.542,13.28,0.012,138.4
09,2022-08-24T05:00:00,2000.0,42.79,6.0312,-0.001,-0.005,0.0,66.0,65.0,69.0,12.9,1504.7,354.7,-0.8,0.8,1992.584,13.28,0.005,191.3
09,2022-08-24T05:30:00,2000.0,42.79,6.0312,-0.005,-0.004,-0.026,66.0,61.0,67.0,12.9,1504.7,354.7,-0.8,0.8,1992.563,13.28,0.006,231.3
09,2022-08-24T06:00:00,2000.0,42.79,6.0312,-0.028,0.001,0.012,67.0,64.0,65.0,12.9,1504.7,355.3,-0.6,0.8,1992.536,13.28,0.028,272.0
09,2022-08-24T06:30:00,2000.0,42.79,6.0312,-0.01,-0.01,-0.002,66.0,64.0,65.0,12.9,1504.7,355.1,-0.7,0.8,1992.541,13.28,0.014,225.0
09,2022-08-24T07:00:00,2000.0,42.79,6.0312,-0.018,-0.023,0.012,64.0,62.0,65.0,12.9,1504.7,355.4,-0.7,0.8,1992.573,13.28,0.029,218.0
09,2022-08-24T07:30:00,2000.0,42.79,6.0312,-0.015,0.001,0.013,66.0,61.0,65.0,12.9,1504.7,355.6,-0.7,0.8,1992.565,13.28,0.015,273.8
09,2022-08-24T08:00:00,2000.0,42.79,6.0312,-0.026,0.016,-0.03,64.0,63.0,65.0,12.9,1504.7,353.4,-0.6,0.8,1992.537,13.28,0.03,301.6
09,2022-08-24T08:30:00,2000.0,42.79,6.0312,-0.033,0.004,-0.008,65.0,62.0,65.0,12.9,1504.7,350.9,-0.6,0.8,1992.527,13.28,0.033,276.9
09,2022-08-24T09:00:00,2000.0,42.79,6.0312,-0.046,-0.004,0.001,65.0,60.0,64.0,12.9,1504.7,354.4,-0.6,0.9,1992.517,13.28,0.046,265.0
09,2022-08-24T09:30:00,2000.0,42.79,6.0312,-0.018,-0.007,0.008,65.0,62.0,64.0,12.9,1504.7,353.3,-0.8,0.8,1992.53,13.28,0.019,248.8
09,2022-08-24T10:00:00,2000.0,42.79,6.0312,-0.046,-0.006,-0.023,64.0,62.0,67.0,12.9,1504.7,354.0,-0.8,0.8,1992.509,13.28,0.046,262.6
09,2022-08-24T10:30:00,2000.0,42.79,6.0312,-0.037,0.019,0.009,67.0,61.0,63.0,12.9,1504.7,355.1,-0.8,0.8,1992.491,13.28,0.041,297.2
09,2022-08-24T11:00:00,2000.0,42.79,6.0312,-0.024,0.012,-0.011,67.0,61.0,64.0,12.9,1504.7,356.9,-0.5,0.8,1992.446,13.28,0.026,296.6
09,2022-08-24T11:30:00,2000.0,42.79,6.0312,-0.036,0.0,-0.001,65.0,66.0,62.0,12.9,1504.7,2.8,-0.5,0.8,1992.452,13.28,0.036,270.0
09,2022-08-24T12:00:00,2000.0,42.79,6.0312,-0.02,0.004,0.024,65.0,60.0,67.0,12.9,1504.7,2.4,-0.5,0.8,1992.464,13.28,0.02,281.3
09,2022-08-24T12:30:00,2000.0,42.79,6.0312,-0.01,0.011,0.016,64.0,60.0,64.0,12.9,1504.7,2.1,-0.5,0.9,1992.458,13.28,0.014,317.7
09,2022-08-24T13:00:00,2000.0,42.79,6.0312,-0.029,0.009,-0.003,64.0,60.0,65.0,12.9,1504.7,4.0,-0.7,0.8,1992.431,13.28,0.03,287.2
09,2022-08-24T13:30:00,2000.0,42.79,6.0312,-0.02,0.008,0.002,63.0,60.0,65.0,12.9,1504.7,7.0,-0.6,0.9,1992.495,13.28,0.021,291.8
09,2022-08-24T14:00:00,2000.0,42.79,6.0312,0.002,0.045,0.006,64.0,61.0,64.0,12.9,1504.7,6.4,-0.6,0.8,1992.482,13.28,0.045,2.5
09,2022-08-24T15:00:00,2000.0,42.79,6.0312,0.011,0.017,-0.014,65.0,62.0,64.0,12.9,1504.7,5.5,-0.6,0.8,1992.544,13.28,0.02,32.9
09,2022-08-24T15:30:00,2000.0,42.79,6.0312,0.001,0.028,-0.039,64.0,59.0,64.0,12.9,1504.7,6.3,-0.6,0.8,1992.558,13.28,0.028,2.0
09,2022-08-24T16:00:00,2000.0,42.79,6.0312,-0.025,0.0,0.008,66.0,64.0,63.0,12.9,1504.7,3.2,-0.7,0.8,1992.567,13.28,0.025,270.0
09,2022-08-24T16:30:00,2000.0,42.79,6.0312,-0.015,0.018,0.029,67.0,62.0,67.0,12.9,1504.7,0.8,-0.6,0.8,1992.648,13.28,0.023,320.2
09,2022-08-24T17:00:00,2000.0,42.79,6.0312,0.004,0.006,-0.018,63.0,68.0,64.0,12.9,1504.7,358.7,-0.6,0.8,1992.555,13.28,0.007,33.7
09,2022-08-24T17:30:00,2000.0,42.79,6.0312,-0.024,0.001,0.015,67.0,65.0,63.0,12.9,1504.7,357.7,-0.7,0.8,1992.618,13.28,0.024,272.4
09,2022-08-24T18:00:00,2000.0,42.79,6.0312,0.001,0.0,0.003,67.0,60.0,61.0,12.9,1504.7,357.3,-0.7,0.8,1992.658,13.28,0.001,90.0
09,2022-08-24T18:30:00,2000.0,42.79,6.0312,-0.01,-0.001,-0.006,66.0,61.0,66.0,12.9,1504.7,357.1,-0.7,0.8,1992.616,13.28,0.01,264.3
09,2022-08-24T19:00:00,2000.0,42.79,6.0312,0.006,-0.02,-0.034,63.0,61.0,64.0,12.9,1504.7,355.3,-0.7,0.8,1992.604,13.28,0.02,163.3
09,2022-08-24T19:30:00,2000.0,42.79,6.0312,-0.004,-0.004,-0.02,63.0,56.0,64.0,12.9,1504.7,354.5,-0.7,0.8,1992.598,13.28,0.005,225.0
09,2022-08-24T20:00:00,2000.0,42.79,6.0312,-0.004,-0.009,0.012,67.0,59.0,64.0,12.9,1504.7,355.7,-0.7,0.8,1992.651,13.28,0.009,204.0
09,2022-08-24T20:30:00,2000.0,42.79,6.0312,0.005,0.002,-0.001,72.0,66.0,62.0,12.9,1504.7,355.0,-0.7,0.8,1992.62,13.28,0.005,68.2
09,2022-08-24T21:00:00,2000.0,42.79,6.0312,-0.003,-0.003,-0.011,64.0,62.0,64.0,12.9,1504.7,354.2,-0.7,0.8,1992.622,13.28,0.004,225.0
09,2022-08-24T21:30:00,2000.0,42.79,6.0312,-0.011,-0.004,0.005,71.0,61.0,64.0,12.9,1504.7,355.9,-0.7,0.8,1992.556,13.28,0.011,250.0
09,2022-08-24T22:00:00,2000.0,42.79,6.0312,-0.012,0.016,0.01,63.0,60.0,62.0,12.9,1504.7,357.6,-0.7,0.9,1992.579,13.28,0.02,323.1
09,2022-08-24T22:30:00,2000.0,42.79,6.0312,-0.02,-0.021,0.02,66.0,59.0,66.0,12.9,1504.7,358.0,-0.6,0.8,1992.528,13.28,0.028,223.6
09,2022-08-24T23:00:00,2000.0,42.79,6.0312,-0.021,0.028,0.007,64.0,62.0,64.0,12.9,1504.7,1.7,-0.6,0.8,1992.514,13.28,0.035,323.1
